STARLINK-11559, 62831

Orbit data source: Space-Track

STARLINK-11559, 62831 is a payload satellite owned by SpaceX/Seattle (US) in LEO that was launched on Mon, 27 Jan 2025 UTC via an FALCON 9 launch vehicle from the Air Force Eastern Test Range (AFETR). Payload-class satellites include a variety of spacecraft equipped with specific instruments for various scientific and technological missions. These include communications satellites like Starlink; space stations such as the ISS; scientific satellites like the Hubble; Earth observation satellites from companies like Planet Labs, Umbra, and HawkEye 360; GPS; miniature CubeSats for education and research; and military/defense satellites.

Loading next visibility...
Identifier
62831, 2025-019C
Orbit
LEO
Country
Flag of USUS
Related business
Manufacturer
SpaceX/Seattle
Mission
Operational Commercial Communications
Bus & Motor
STARLINK V2MD, Unknown motor
Mass
960 kg wet, ~910 kg dry
Launch date (UTC)
2025-01-27 (9 months ago)
Launch vehicle
FALCON 9
Launch site
Air Force Eastern Test Range (AFETR)
Object type
Payload
Rocket body
Debris
Shape & HBR
Box + 2 Pan, 18.1 m
Radar Cross Section
36.964 m², Large (>1 m²)

Expand to show TLE details & history
Last TLE update: 7 hours ago

TLE from 7 hours ago
0 STARLINK-11559
1 62831U 25019C   25287.88073996  .00140875  00000-0  10805-2 0  9992
2 62831  42.9991 105.3333 0002356 258.4298 101.6305 15.70890247 40944
Epoch: 2025-10-14T21:08Z
TLE epoch observation values (Epoch: 2025-10-14T21:08:15.932Z)
Latitude
-0.00003°
Longitude
124.60406°
Altitude
356.443 km
Speed
7.697 km/s
True Right ascension
07h 01m 19s
True Declination
0° 00' 00"
Sunlit
Object was in daylight at epoch
Visualization orbit readout
Latitude
Unknown
Longitude
Unknown
Altitude
Unknown
Speed
Unknown
Apparent Right ascension
Unknown
Apparent Declination
Unknown
Sunlit
N/A
Visualization observer readout
Local Sidereal Time
22:16:59
Azimuth
Unknown
Elevation
Unknown
Doppler factor
Unknown
Orbital elements
Apogee altitude
359.92 km
Perigee altitude
356.746 km
Semi-major axis
6,736.47 km
Eccentricity
0.00024
Inclination
42.9991°
RAAN
105.3333°
Arg. of periapsis
258.4298°
True anomaly
101.65694°
Mean anomaly
101.6305°
Eccentric anomaly
101.64372°
Mean motion
3.9255 °/min
Orbital period
91.71 mins
BSTAR
0.0010805
Loading maneuver chart data...
Computing Atmospheric mass density...
Loading historical data...
Loading historical data...
Loading historical data...
Loading historical data...
Loading historical data...
Loading historical data...
Loading historical data...

Documentation

Showing up to 5 results
|